GEFSCGP_con_prob3kmehi_228.txt.gz
EHI
0 0 0 0 0 0 0 0 0 0 0 0 0 1 4 6 6 6 7 7 6 4 4 4 2 1 2 7 12 15 16 17 16 14 16 17 16 14 9 6 6 7 8 8
0 0 0 0 0 0 0 0 0 0 0 0 0 0 3 5 6 5 6 8 6 6 6 4 3 2 4 9 13 15 17 19 19 16 15 17 17 14 11 8 9 10 10 10
0 0 0 0 0 0 0 0 0 0 0 0 0 0 1 4 5 4 6 8 7 7 7 6 5 5 9 12 13 15 20 23 25 22 17 17 18 16 12 10 10 11 11 11
0 0 0 0 0 0 0 0 0 0 0 0 0 0 1 2 5 7 9 10 9 8 9 8 8 10 12 13 13 16 23 28 29 26 21 19 18 15 11 10 9 10 11 11
0 0 0 0 0 0 0 0 0 0 0 0 0 0 0 1 4 8 11 12 11 11 11 10 11 13 12 11 12 17 24 29 31 27 23 21 19 16 14 14 13 12 11 11
0 0 0 0 0 1 1 0 0 0 0 0 0 0 1 1 3 6 10 12 13 13 13 13 13 15 14 11 13 18 24 28 29 27 25 23 22 21 21 19 16 14 12 11
0 0 0 0 0 1 1 0 0 0 0 0 0 1 2 3 3 5 8 13 15 16 17 17 19 21 19 16 17 21 25 27 27 26 26 25 23 22 20 17 14 12 11 10
0 0 0 0 0 1 1 0 0 0 0 0 0 1 3 4 4 6 9 15 18 20 21 21 23 26 24 21 22 24 27 28 27 25 25 24 20 17 14 11 10 10 10 10
0 0 0 0 0 0 0 0 0 0 0 0 0 1 3 6 8 10 12 16 20 24 24 21 22 25 25 24 25 26 29 30 28 25 22 20 19 16 13 9 8 9 11 11
0 0 0 0 0 0 0 0 0 0 0 0 0 1 4 9 12 13 14 15 20 25 24 20 20 24 25 25 26 27 28 28 26 23 20 18 17 15 13 10 9 11 13 14
0 0 0 0 0 0 0 0 0 0 0 0 0 1 6 11 13 13 14 16 20 23 22 18 19 23 25 24 25 26 26 24 22 21 20 17 15 14 12 10 10 13 15 17
0 0 0 0 0 0 0 0 0 0 0 0 0 3 8 13 15 14 16 19 21 21 19 18 20 22 23 21 21 24 24 21 20 21 22 20 18 15 12 10 11 13 16 18
0 0 0 0 0 0 0 0 0 0 0 0 1 5 11 16 17 17 18 22 24 21 19 19 20 21 21 20 21 22 21 20 20 21 22 22 19 15 12 11 11 13 15 17
0 0 0 0 0 0 0 0 0 0 0 0 2 8 14 18 18 17 19 24 26 24 22 21 21 22 23 23 23 23 21 19 18 18 19 20 17 12 11 10 10 11 13 13
0 0 0 0 0 1 1 1 1 0 0 1 3 8 15 18 18 18 21 27 29 27 25 23 23 23 23 23 25 26 25 22 19 16 16 16 14 11 9 8 8 9 10 9
0 0 0 0 0 1 2 2 2 1 0 1 3 8 15 19 18 20 23 26 28 26 23 23 22 22 21 20 23 27 28 27 23 17 15 15 14 14 11 8 9 10 10 10
0 0 0 0 0 1 2 2 2 1 0 1 4 9 16 20 20 20 19 20 22 22 21 20 20 20 20 19 21 25 29 30 25 18 15 16 17 17 15 13 13 15 16 17
0 0 0 0 0 0 1 1 1 1 0 1 5 11 18 22 23 20 16 15 18 21 21 21 19 19 21 21 22 25 30 30 25 19 17 18 19 20 20 19 19 20 21 21
1 1 0 0 0 0 0 0 1 1 1 3 8 14 20 23 24 22 19 17 21 25 25 22 19 20 23 24 25 27 29 29 25 20 18 19 20 21 22 23 23 22 21 21
0 0 0 0 0 0 1 1 1 1 3 6 11 18 23 22 22 25 24 23 25 28 27 23 21 23 25 26 26 27 27 27 24 20 20 22 23 24 24 25 25 22 19 18
0 0 0 0 0 1 2 2 3 4 8 12 15 22 27 25 26 28 28 26 26 26 26 23 22 24 25 27 29 28 27 26 23 20 21 25 25 24 24 25 25 22 19 17
1 1 1 1 1 3 5 5 6 9 13 16 18 24 30 30 30 30 29 25 23 24 23 21 21 24 27 30 32 31 29 26 22 20 21 24 25 23 23 26 25 23 20 17
2 3 4 4 5 7 8 8 8 11 14 17 20 25 29 29 29 29 27 22 20 22 22 18 18 23 28 32 34 33 30 26 23 21 22 23 23 22 23 26 27 24 21 19
4 5 7 8 8 8 9 8 9 11 14 17 19 23 24 24 24 25 25 23 21 23 22 17 15 19 25 29 30 30 28 26 24 22 21 21 22 21 22 24 25 24 23 22
5 6 9 10 10 10 9 9 9 11 14 16 18 19 19 19 19 22 25 26 25 26 25 20 15 16 20 23 23 24 25 24 22 21 18 18 19 20 21 21 20 20 20 20
5 7 10 10 10 12 11 9 9 11 14 16 16 16 16 17 18 21 25 27 27 28 27 21 16 15 17 18 19 21 23 22 20 19 17 16 17 20 21 19 15 16 16 13

GEFSCGP_con_prob3kmehi_234.txt.gz
EHI
0 0 0 0 0 0 0 0 0 0 0 0 1 2 2 2 5 13 20 23 21 17 17 20 21 22 29 36 36 31 25 23 22 18 16 19 19 17 20 24 25 23 19 15
0 0 0 0 0 0 0 0 0 0 0 0 0 1 2 2 5 14 21 22 20 19 22 26 25 25 32 39 39 32 27 27 24 19 16 17 18 18 22 25 26 24 20 17
0 0 0 0 0 0 0 0 0 0 0 0 0 2 3 2 4 13 21 22 21 23 29 31 30 31 37 43 40 33 30 29 26 22 18 15 16 20 25 28 27 24 21 20
0 0 0 0 0 0 0 0 0 0 0 0 0 3 5 4 5 11 19 23 24 28 33 35 35 35 39 42 40 36 35 31 28 26 22 18 17 19 23 26 26 24 22 21
0 0 0 0 0 0 0 0 0 0 0 0 0 2 5 7 6 9 15 20 23 28 34 39 40 37 36 38 40 41 41 36 32 30 28 24 21 19 20 24 25 24 24 24
0 0 0 0 0 0 0 0 0 0 0 0 0 2 5 6 5 6 9 14 20 25 31 39 42 40 37 37 40 45 46 43 37 34 32 28 23 21 22 26 27 25 24 25
0 0 0 0 0 0 0 0 0 0 0 0 0 2 4 5 5 6 8 13 19 23 28 36 42 44 43 42 43 48 51 48 42 36 32 28 25 23 25 28 28 25 22 20
0 0 0 0 0 0 0 0 0 0 0 0 1 3 4 5 6 8 11 15 19 23 28 37 44 47 47 46 47 51 53 50 44 39 34 31 28 25 26 28 27 23 20 18
0 0 0 0 0 0 0 0 0 0 0 0 2 6 7 7 7 9 13 16 19 24 31 40 48 49 48 47 49 53 54 50 45 41 38 36 32 28 26 27 25 21 19 20
0 0 0 0 0 0 0 0 0 0 0 0 2 7 9 9 10 12 17 20 23 27 34 44 50 50 46 44 47 53 54 51 47 44 41 39 37 31 26 25 23 20 19 20
0 0 0 0 0 0 0 0 0 0 0 0 2 7 10 12 13 17 22 27 28 29 35 44 50 50 45 41 45 51 53 50 46 44 41 40 39 33 27 24 22 20 18 18
1 1 1 0 0 0 0 0 0 0 0 0 2 6 10 12 16 22 27 32 32 32 36 43 48 48 43 41 45 50 50 47 44 42 41 40 38 34 29 25 21 17 15 15
2 1 1 0 0 0 0 0 0 0 0 0 3 7 9 13 20 25 30 34 35 36 40 46 51 50 46 45 49 50 48 45 44 43 42 40 37 34 31 26 21 16 14 14
2 1 0 0 0 0 0 0 0 0 0 1 3 6 10 17 25 29 31 34 36 39 44 51 55 56 54 53 52 49 45 46 48 47 44 41 38 34 30 27 23 18 15 14
1 1 0 0 0 0 0 0 0 0 1 2 3 5 11 20 27 32 33 36 40 43 47 53 58 59 58 56 54 49 44 46 49 47 43 40 38 35 31 27 24 20 17 16
0 0 0 0 0 0 0 0 1 1 2 2 3 7 14 22 29 33 35 39 45 48 51 56 60 60 58 58 58 54 49 48 48 45 41 39 39 36 31 27 24 23 21 21
1 1 1 0 0 0 0 1 2 3 5 6 7 11 19 26 31 33 36 41 47 53 57 59 60 60 59 59 60 57 51 48 45 42 41 40 39 36 31 28 27 28 27 27
2 2 1 0 0 0 1 2 2 4 7 9 11 15 22 29 33 35 38 44 49 54 57 56 56 56 57 57 56 53 48 43 40 38 39 41 39 36 33 32 32 33 32 31
2 2 1 0 0 0 0 1 2 3 6 9 12 17 23 29 33 37 42 46 48 49 50 50 48 49 52 53 51 46 42 39 37 37 37 38 38 35 34 34 35 37 35 33
1 1 0 0 0 1 1 1 2 4 7 9 13 20 28 31 34 41 45 45 43 44 45 44 43 46 49 50 47 42 38 37 37 37 37 36 34 32 33 34 36 37 35 33
0 0 0 0 1 3 4 3 4 8 12 14 18 26 33 37 40 45 45 42 41 41 41 40 42 46 48 47 45 41 39 37 38 39 39 35 31 30 30 33 36 35 33 32
1 2 3 3 4 7 7 6 9 14 17 17 19 27 34 39 43 44 41 39 39 39 36 35 40 44 45 43 43 44 44 41 39 39 38 34 31 30 30 32 34 33 31 30
3 5 9 11 11 11 9 10 13 17 18 17 17 24 32 36 38 38 37 36 36 35 32 31 34 37 38 36 37 41 46 44 40 36 34 32 31 31 32 32 31 28 26 25
5 9 15 17 15 11 10 11 14 16 16 14 14 20 26 29 32 34 35 35 33 33 33 31 29 30 31 30 30 35 41 42 38 33 29 28 28 29 31 31 27 24 22 21
6 10 16 18 16 12 11 11 13 15 15 13 12 14 19 23 27 30 33 34 32 32 33 32 30 29 30 29 29 32 35 37 36 31 25 24 24 26 26 25 22 20 18 18
7 10 14 17 17 15 13 13 13 14 15 14 12 12 14 19 23 27 30 30 29 30 32 33 33 32 31 30 30 30 32 35 34 30 24 21 21 23 22 20 18 15 14 14

GEFSCGP_con_prob3kmehi_240.txt.gz
EHI
0 0 0 0 0 0 0 0 0 0 0 0 0 1 3 5 6 7 9 10 9 7 7 12 14 14 11 8 5 3 3 5 4 2 1 1 1 1 2 5 6 4 2 1
0 0 0 0 0 0 0 0 0 0 0 0 1 2 4 5 6 8 10 12 11 8 9 14 17 17 15 11 7 5 4 5 6 5 4 3 2 2 3 4 5 5 4 3
0 0 0 0 0 0 0 0 0 0 0 0 1 2 5 6 6 8 12 15 13 10 11 15 19 21 21 16 11 8 7 7 9 8 7 6 5 6 5 5 6 7 6 6
0 0 0 0 0 0 0 0 0 0 0 0 1 1 5 8 7 7 12 15 14 12 14 17 21 24 24 20 16 13 12 11 11 10 9 8 8 8 8 7 7 7 7 7
0 0 0 0 0 0 0 0 0 0 0 0 0 1 4 8 8 8 11 15 16 16 17 18 21 24 23 22 21 18 17 15 12 10 9 10 10 10 10 8 6 7 8 7
0 0 0 0 0 0 0 0 0 0 0 0 0 1 4 7 9 10 14 18 18 19 19 18 19 22 24 25 26 25 22 19 15 12 11 11 12 12 13 10 6 6 7 7
0 0 0 0 0 0 0 0 0 0 0 0 0 1 4 8 10 13 16 19 20 21 22 21 21 26 29 30 31 31 28 23 18 17 16 14 13 13 13 10 7 6 6 6
0 0 0 0 0 0 0 0 0 0 0 0 1 3 6 9 11 13 15 19 21 23 25 26 28 31 34 34 34 34 31 26 23 22 19 15 13 11 10 8 7 6 6 6
0 0 0 0 0 0 0 0 0 0 0 0 1 4 6 8 10 12 15 18 20 22 25 29 31 33 35 36 35 35 32 29 27 24 21 16 12 10 9 8 7 6 6 6
0 0 0 0 0 0 0 0 0 0 0 0 1 2 4 8 11 14 17 19 20 21 25 30 33 34 35 34 33 33 34 32 29 26 21 16 14 13 12 10 7 5 4 4
0 0 0 0 0 0 0 0 0 0 0 0 0 1 4 10 14 16 20 22 23 25 28 31 34 34 34 32 30 31 33 32 30 27 22 18 17 17 14 10 5 4 3 3
0 0 0 0 0 0 0 0 0 0 0 0 0 3 8 13 16 19 23 26 29 31 31 31 33 33 32 32 31 31 32 32 31 29 25 21 18 16 12 8 4 3 3 3
0 0 0 0 0 0 0 0 0 0 0 0 1 5 11 15 17 21 26 31 35 37 35 32 30 31 31 33 34 35 34 32 31 30 28 24 19 14 9 6 4 3 3 2
0 0 0 0 0 0 1 1 1 0 0 0 2 6 11 14 18 22 27 33 38 40 38 34 30 28 30 33 35 36 33 30 28 27 27 25 22 16 10 7 5 3 1 1
0 0 0 0 0 1 2 3 2 2 1 1 3 5 8 13 18 22 27 33 38 39 37 34 29 26 27 30 31 29 27 25 24 24 25 25 23 19 14 9 6 4 3 2
0 0 0 0 0 2 3 4 4 4 4 2 2 4 8 12 17 21 27 33 35 35 34 33 30 26 25 27 25 22 20 21 23 24 24 23 22 19 15 12 9 7 7 6
0 0 0 0 0 1 3 5 5 5 5 4 4 7 11 15 18 20 25 32 33 31 33 35 33 29 27 25 22 18 18 20 23 24 24 23 22 19 16 15 13 10 9 9
0 0 0 0 0 0 2 4 5 6 6 7 7 11 16 20 22 22 26 30 31 30 32 35 34 32 30 26 20 18 18 20 22 23 24 25 23 20 18 17 15 13 12 11
0 0 0 0 0 0 0 1 3 5 8 10 12 15 20 24 26 25 26 28 27 28 29 30 31 32 31 27 22 20 19 21 23 23 25 26 24 21 20 20 18 16 15 14
0 0 0 0 0 0 1 1 1 4 7 10 14 18 21 25 25 23 22 21 22 24 26 26 27 30 28 25 24 22 21 23 24 24 24 24 22 21 21 21 20 19 18 17
0 0 0 0 0 1 2 2 2 2 5 9 13 17 19 21 21 19 17 17 17 20 22 23 24 25 23 21 21 21 20 20 21 21 20 18 16 17 18 19 19 20 20 20
0 0 0 0 1 2 3 3 3 3 5 9 12 15 17 18 19 19 17 15 14 15 17 20 21 20 17 16 16 16 15 14 15 16 14 11 11 13 14 15 17 20 22 21
0 0 0 2 3 4 5 6 6 6 9 11 13 15 17 18 19 19 16 13 11 10 13 16 17 16 13 12 12 10 8 9 11 11 9 7 8 9 10 12 14 18 20 20
0 0 1 3 5 6 8 10 10 10 11 13 14 15 17 18 19 18 15 10 8 9 12 13 14 12 10 9 9 7 5 6 9 9 7 6 6 6 7 9 11 13 16 17
1 1 2 3 4 6 9 11 12 12 12 14 16 17 18 18 18 15 12 9 9 11 12 11 11 10 8 7 7 7 6 7 8 8 7 6 6 5 6 7 8 9 11 13
1 2 2 1 2 4 8 11 12 12 12 14 17 19 19 19 16 13 11 10 10 12 12 9 9 9 8 6 7 7 7 8 8 7 7 6 6 6 6 6 5 7 8 9

GEFSCGP_con_prob3kmehi_246.txt.gz
EHI
0 0 0 0 0 0 0 0 0 0 1 1 1 1 2 2 2 1 1 2 3 5 7 6 3 1 1 1 1 0 0 1 2 3 3 3 3 2 1 0 0 0 0 0
0 0 0 0 0 0 0 0 0 0 0 1 1 0 1 1 1 0 0 1 4 6 8 7 5 3 3 3 2 0 0 1 2 3 3 3 3 2 1 1 0 0 0 0
0 0 0 0 0 0 0 0 0 0 0 0 1 0 0 0 0 1 1 2 5 7 8 7 6 5 5 4 2 0 0 0 1 3 4 4 3 3 2 2 1 0 0 0
0 0 0 0 0 0 0 0 0 0 0 0 0 0 0 1 1 2 3 4 5 7 8 8 7 6 5 4 2 0 0 0 1 2 4 5 4 4 3 2 1 0 0 0
0 0 0 0 0 0 0 0 0 0 0 0 0 0 1 2 3 3 4 4 5 7 8 8 7 7 6 4 3 1 1 2 2 3 4 5 5 4 2 1 0 0 0 0
0 0 0 0 0 0 0 0 0 0 0 0 0 0 1 2 3 3 3 3 4 7 8 6 5 6 5 4 3 2 1 2 4 5 6 6 6 5 3 1 0 0 0 0
0 0 0 0 0 0 0 0 0 0 0 0 0 0 1 1 2 2 2 3 4 5 5 3 3 5 5 3 3 2 2 2 4 6 7 7 6 6 5 4 1 0 0 0
0 0 0 0 0 0 0 0 0 0 0 0 0 0 1 1 0 0 1 2 2 2 2 1 2 4 5 4 3 3 3 3 4 6 7 8 7 6 6 4 1 0 0 0
0 0 0 0 0 0 0 0 0 0 0 0 0 0 1 1 1 1 1 1 0 0 0 0 1 3 5 4 3 4 4 5 5 7 8 9 8 7 6 4 1 0 0 1
0 0 0 0 0 0 0 0 0 0 0 0 0 0 1 2 3 4 3 1 1 1 1 1 1 2 4 4 3 4 5 6 7 9 10 10 9 7 6 4 2 1 1 2
0 0 0 0 0 0 0 0 0 0 0 0 0 0 1 3 5 6 5 3 3 3 3 3 2 2 3 3 3 4 7 8 10 10 10 9 8 7 6 5 3 1 1 2
0 0 0 0 0 0 0 0 0 0 0 0 0 1 4 6 6 7 6 6 7 9 9 7 6 6 5 4 5 8 9 10 11 11 9 8 7 7 6 6 4 2 1 2
0 0 0 0 0 1 1 1 0 0 0 0 0 2 6 8 8 7 7 8 11 13 14 13 11 10 8 7 9 11 12 12 12 13 12 9 7 6 6 6 5 3 3 3
0 0 0 0 1 2 3 2 1 0 0 0 0 2 7 9 8 7 8 11 14 15 15 15 14 12 9 8 9 11 12 13 13 15 14 11 8 6 6 6 6 5 4 4
0 0 1 1 2 4 5 4 2 1 1 1 2 3 5 7 7 7 9 13 15 15 15 16 17 15 12 9 9 9 10 11 14 16 15 12 9 7 6 6 7 6 5 4
0 1 2 3 3 4 5 4 3 2 2 3 3 3 4 5 6 7 9 13 14 15 16 18 19 19 17 13 10 8 7 9 12 15 15 14 12 11 10 10 9 8 5 4
0 1 2 3 3 3 3 3 3 2 3 4 4 4 4 4 5 6 8 12 15 16 18 19 20 20 18 15 10 6 6 8 10 12 14 15 16 16 16 14 12 10 7 5
0 0 1 2 1 1 1 1 1 2 3 4 5 6 6 7 7 7 9 14 16 17 16 17 17 16 14 11 8 6 6 8 8 9 10 12 14 16 16 14 12 12 10 8
0 0 0 0 0 0 0 0 0 2 3 4 5 7 10 12 12 11 12 16 16 14 13 14 14 11 8 7 7 8 9 8 7 6 7 8 10 11 12 12 11 12 12 12
0 0 0 0 0 0 0 0 0 1 2 3 5 7 10 13 12 11 14 17 16 13 12 13 11 7 5 5 7 10 11 9 6 6 6 7 7 7 8 8 8 9 11 12
0 0 0 0 0 0 1 1 1 1 2 2 4 6 7 7 8 10 15 18 17 15 14 11 9 6 5 5 7 10 10 8 6 6 6 6 5 5 5 5 6 7 9 9
0 0 0 0 0 0 1 2 1 1 3 3 3 4 4 5 8 12 15 16 16 15 12 9 8 7 6 6 7 8 7 6 7 7 6 4 4 4 4 4 4 6 7 7
0 0 0 0 0 0 0 1 1 2 4 4 3 4 5 7 12 14 14 13 11 9 8 6 5 5 6 6 6 6 4 4 6 7 6 4 4 4 5 5 5 6 7 7
1 0 0 0 0 0 1 1 1 2 4 5 4 4 5 8 12 14 12 9 7 5 4 4 3 4 5 5 5 3 1 2 4 6 6 5 4 4 4 5 6 6 7 8
1 1 0 0 0 1 1 2 2 2 4 6 6 4 4 6 9 10 8 6 5 4 4 3 3 3 4 4 3 1 0 0 1 3 4 4 4 4 3 4 4 5 6 6
1 1 1 1 1 1 1 2 2 2 4 6 7 5 4 4 5 6 5 5 5 4 4 4 3 2 3 3 2 1 0 0 0 1 3 4 4 4 3 3 4 4 4 4

GEFSCGP_con_prob3kmehi_252.txt.gz
EHI
0 0 0 0 0 0 0 0 0 0 0 0 0 0 0 1 3 3 3 2 2 4 6 7 8 7 6 6 7 6 3 2 4 6 6 6 7 6 6 6 4 2 0 0
0 0 0 0 0 0 0 0 0 0 0 0 0 0 1 2 3 3 3 2 2 3 6 9 10 9 8 7 7 5 4 3 4 5 7 8 7 6 5 5 4 3 1 0
0 0 0 0 0 0 0 0 0 0 0 0 0 0 1 3 4 4 3 3 2 3 7 11 12 10 9 8 6 5 5 5 4 5 7 8 7 5 4 4 4 4 3 1
0 0 0 0 0 0 0 0 0 0 0 0 0 0 2 4 5 5 5 5 3 4 8 12 12 10 8 6 5 5 7 7 6 6 6 6 5 4 4 4 4 5 4 3
0 0 0 0 0 0 0 0 0 0 0 0 0 0 1 3 5 7 9 8 6 7 11 12 11 9 6 4 3 5 8 9 8 8 6 5 5 4 4 5 7 6 5 4
0 0 0 0 0 0 0 0 0 0 0 0 0 0 1 3 4 7 11 11 11 13 16 16 13 9 5 3 3 6 10 11 10 8 7 7 6 6 6 8 8 7 5 5
0 0 0 0 0 0 0 0 0 0 0 0 0 0 2 4 6 7 9 12 15 19 21 21 18 12 7 4 3 6 11 13 11 9 9 9 9 9 9 9 8 6 5 6
0 0 0 0 0 0 0 0 0 0 0 0 0 1 4 6 7 7 8 12 17 22 23 21 18 13 8 5 5 7 11 14 14 12 12 14 14 12 10 9 8 6 6 6
0 0 0 0 0 0 0 0 0 0 0 0 0 2 4 6 6 7 9 15 21 25 24 18 13 10 8 8 9 10 12 16 17 16 17 18 16 13 11 9 8 8 8 7
0 0 0 0 0 0 0 0 0 0 0 0 1 3 5 7 8 7 10 17 23 25 23 17 11 7 7 9 11 13 15 18 19 19 19 17 16 15 12 10 9 10 10 8
0 0 0 0 0 0 0 0 0 0 0 0 1 4 8 11 12 10 11 15 20 21 21 18 13 9 8 10 12 14 17 19 21 21 20 18 16 14 13 11 10 12 11 9
0 0 0 0 0 0 0 0 0 0 0 0 1 4 8 13 14 13 13 15 17 19 21 20 18 16 15 15 15 15 16 19 21 21 21 18 15 14 15 15 13 13 13 11
0 0 0 0 0 0 0 0 0 0 0 0 1 4 7 10 13 15 16 18 20 22 25 26 26 26 26 26 25 22 19 19 20 21 21 19 17 16 16 16 14 13 13 14
0 0 0 0 0 0 0 0 0 0 1 1 2 4 7 9 12 16 19 22 23 27 33 38 38 37 36 38 37 32 25 22 22 23 24 23 21 18 16 15 13 12 13 14
0 0 0 1 1 0 0 0 0 1 1 2 3 4 8 11 13 15 20 22 22 27 37 45 48 46 45 46 45 39 32 28 27 27 28 27 23 18 15 13 12 11 12 13
0 0 1 1 1 1 1 1 2 1 1 1 2 5 9 12 13 14 17 19 21 26 35 43 48 51 51 50 46 42 37 34 33 32 30 26 21 17 15 14 12 12 13 14
1 1 1 1 1 1 2 2 3 3 2 2 3 7 11 13 13 13 15 18 21 26 34 40 46 50 50 46 42 41 41 40 37 33 30 26 21 17 15 16 17 16 17 17
0 0 0 0 0 1 2 2 2 4 5 7 8 10 12 12 12 12 14 19 22 27 35 40 44 45 43 40 38 38 40 42 37 32 29 27 23 19 17 20 23 23 23 22
0 0 0 0 0 1 1 1 2 4 6 8 10 12 13 13 12 13 17 20 23 27 33 39 41 39 37 35 35 36 37 37 34 30 28 26 24 22 22 25 28 28 26 25
1 1 1 0 1 2 1 1 2 3 5 7 9 11 15 15 13 17 22 23 24 26 30 35 36 36 36 37 36 36 35 34 31 28 25 24 23 24 26 29 29 28 26 26
0 1 1 1 2 2 1 1 2 4 6 7 9 12 16 17 17 21 25 25 25 27 30 32 33 36 39 39 37 34 32 31 29 26 24 21 20 21 24 26 25 23 22 23
0 1 1 1 2 2 1 1 3 6 8 9 11 15 18 19 18 21 25 25 24 28 31 31 33 37 40 39 35 31 29 28 27 26 24 20 16 16 19 21 20 18 17 17
0 0 1 2 2 1 1 1 4 6 8 10 12 16 20 21 20 21 23 23 24 28 30 31 33 37 37 35 32 30 29 28 27 26 25 21 16 15 17 19 17 15 14 14
0 0 1 2 1 1 1 3 5 7 8 10 13 16 19 22 22 21 21 23 26 29 30 30 31 33 33 31 30 29 29 30 28 25 24 21 17 16 18 16 13 12 12 13
1 1 1 2 2 2 4 6 7 9 11 13 14 15 18 21 22 20 20 23 27 30 31 30 29 28 28 27 26 26 27 29 28 24 20 17 15 14 14 12 9 8 9 9
2 2 1 2 4 6 7 8 8 10 14 15 14 15 17 19 20 19 19 22 26 30 31 30 28 26 25 24 23 24 26 27 26 23 18 14 11 10 9 9 7 7 6 5

GEFSCGP_con_prob3kmehi_258.txt.gz
EHI
0 0 0 0 0 0 0 0 0 0 0 0 0 1 4 5 4 3 6 12 18 22 23 19 14 14 19 24 24 22 21 19 18 18 17 16 16 16 17 19 20 17 13 9
0 0 0 0 0 0 0 0 0 0 0 0 0 2 5 6 4 4 7 12 18 24 27 25 20 18 23 27 27 25 23 21 19 18 16 15 15 17 19 21 22 21 16 12
0 0 0 0 0 0 0 0 0 0 0 0 0 2 6 8 6 5 8 12 18 27 34 35 31 28 31 32 31 30 29 26 22 19 16 14 15 16 18 20 23 23 19 15
0 0 0 0 0 0 0 0 0 0 0 0 0 1 5 9 10 10 11 13 18 30 41 45 41 38 36 35 34 36 37 34 28 22 18 17 16 15 14 17 21 24 22 19
0 0 0 0 0 0 0 0 0 0 0 0 0 1 4 8 14 17 16 16 21 32 44 51 49 42 37 34 35 41 46 43 36 29 24 23 20 16 14 17 22 24 22 21
0 0 0 0 0 0 0 0 0 0 0 0 0 1 3 7 11 16 18 20 25 32 42 52 54 47 39 36 41 49 54 50 41 34 30 27 24 21 20 21 23 22 20 20
0 0 0 0 0 0 0 0 0 0 0 0 0 2 5 6 7 10 15 22 29 35 42 50 55 53 45 42 49 59 61 53 44 38 34 30 27 25 24 24 24 22 20 20
0 0 0 0 0 0 0 0 0 0 0 0 1 4 7 6 5 6 11 20 30 37 42 47 52 53 50 46 53 65 65 56 45 40 38 34 30 25 22 24 25 24 23 22
0 0 0 0 0 0 0 0 0 0 0 1 3 6 8 8 7 7 10 18 26 34 40 44 48 51 50 50 59 69 68 58 48 42 40 37 31 25 22 25 27 26 25 22
0 0 0 0 0 0 0 0 0 0 0 1 4 7 10 10 10 9 10 15 22 29 37 43 46 49 50 54 64 71 70 62 51 44 41 37 35 32 29 30 30 30 27 25
0 0 0 0 0 0 0 0 0 0 0 0 2 7 11 12 12 12 11 15 20 27 35 42 45 47 49 55 64 69 70 66 57 50 46 42 40 40 39 36 35 34 30 27
0 0 0 0 0 0 0 0 0 0 0 0 2 6 11 12 13 14 15 18 23 28 34 41 44 45 48 54 62 69 71 68 62 57 53 48 46 45 43 40 39 37 32 28
0 0 0 0 0 0 0 0 0 0 0 0 2 6 11 13 14 17 20 25 30 34 38 42 46 48 52 58 64 69 70 68 65 61 56 52 49 47 44 42 40 37 32 29
0 0 0 0 0 0 0 0 0 0 0 1 3 8 12 14 17 21 27 32 36 41 44 49 55 59 63 67 69 69 67 66 64 61 57 54 51 47 45 43 38 32 28 27
0 0 0 0 0 0 0 0 0 0 0 2 6 11 15 17 20 25 32 36 39 43 47 53 60 67 71 73 71 68 65 64 63 61 57 54 50 49 48 44 37 31 28 27
0 0 0 0 0 0 0 0 0 0 1 3 7 14 19 20 21 25 29 33 36 39 44 50 58 65 70 71 70 68 64 62 61 59 57 55 52 52 51 44 39 35 32 31
0 0 0 0 0 0 0 0 0 1 2 4 8 14 18 20 23 25 27 30 32 36 41 47 53 58 62 64 66 66 63 59 57 56 56 56 55 53 49 43 39 37 36 36
1 1 1 0 0 1 1 2 2 3 5 8 12 14 15 19 23 25 27 31 34 37 44 49 51 55 57 58 62 64 62 58 55 54 54 54 54 51 46 41 38 37 37 38
1 2 1 0 0 1 3 5 6 6 8 12 16 16 15 17 19 22 29 34 36 39 45 49 51 54 55 56 59 61 60 56 54 53 53 53 51 50 48 44 42 40 38 38
2 3 2 1 0 1 3 5 6 7 8 13 17 17 16 18 20 26 35 38 37 40 44 47 51 55 55 55 57 58 58 55 52 51 51 51 50 50 50 49 47 44 39 36
2 3 3 1 0 1 3 4 5 8 12 15 17 19 21 24 29 37 43 43 41 42 44 46 50 55 55 53 55 58 57 54 51 50 49 48 46 45 45 47 47 44 39 36
3 3 3 2 3 6 8 9 10 14 18 20 22 25 29 33 36 40 44 44 43 44 44 45 50 54 53 52 53 56 56 53 50 48 47 45 42 39 38 40 41 41 39 36
3 4 4 4 7 11 13 14 16 19 23 24 26 29 33 34 35 38 41 41 39 40 40 40 45 50 50 49 51 52 51 50 49 47 45 42 39 38 37 36 34 35 37 34
4 4 6 8 10 12 12 13 16 20 23 25 27 30 32 32 32 34 38 38 35 34 35 36 41 44 44 44 45 45 45 46 46 46 43 41 39 39 39 36 31 30 30 29
4 5 7 10 11 12 12 12 16 21 24 25 26 28 30 29 29 32 35 35 32 31 32 35 38 40 38 37 37 38 38 39 41 41 39 36 35 37 37 33 27 22 20 19
4 5 7 9 12 14 14 14 17 22 26 24 24 26 29 28 28 31 33 33 31 29 30 34 35 37 36 33 33 34 33 34 35 36 34 31 31 33 33 30 23 15 12 11